Time,TemperatureF,DewpointF,PressureIn,WindDirection,WindDirectionDegrees,WindSpeedMPH,WindSpeedGustMPH,Humidity,HourlyPrecipIn,Conditions,Clouds,dailyrainin,SoftwareType,DateUTC
2013-09-29 00:01:00,56.6,54.9,30.06,West,273,0.0,0.0,94,0.00,,,0.00,VWS V14.01,2013-09-29 04:01:00,
2013-09-29 00:02:00,56.6,54.9,30.06,West,273,0.0,0.0,94,0.00,,,0.00,VWS V14.01,2013-09-29 04:02:00,
2013-09-29 00:04:00,56.6,54.9,30.06,West,273,0.0,0.0,94,0.00,,,0.00,VWS V14.01,2013-09-29 04:04:00,
2013-09-29 00:09:00,56.5,54.8,30.06,West,273,0.0,0.0,94,0.00,,,0.00,VWS V14.01,2013-09-29 04:09:00,
2013-09-29 00:14:00,56.5,54.8,30.05,West,273,0.0,0.0,94,0.00,,,0.00,VWS V14.01,2013-09-29 04:14:00,
2013-09-29 00:19:00,56.5,54.8,30.05,West,273,0.0,0.0,94,0.00,,,0.00,VWS V14.01,2013-09-29 04:19:00,
2013-09-29 00:25:00,56.3,54.6,30.05,West,273,0.0,0.0,94,0.00,,,0.00,VWS V14.01,2013-09-29 04:25:00,
2013-09-29 00:30:00,56.2,54.5,30.05,West,273,0.0,0.0,94,0.00,,,0.00,VWS V14.01,2013-09-29 04:30:00,
2013-09-29 00:35:00,56.2,54.5,30.05,West,273,0.0,0.0,94,0.00,,,0.00,VWS V14.01,2013-09-29 04:35:00,
2013-09-29 00:40:00,56.0,54.3,30.05,West,273,0.0,0.0,94,0.00,,,0.00,VWS V14.01,2013-09-29 04:40:00,
2013-09-29 00:45:00,56.0,54.3,30.06,West,273,0.0,0.0,94,0.00,,,0.00,VWS V14.01,2013-09-29 04:45:00,
2013-09-29 00:50:00,55.9,54.5,30.06,West,273,0.0,0.0,95,0.00,,,0.00,VWS V14.01,2013-09-29 04:50:00,
2013-09-29 00:55:00,55.9,54.5,30.06,West,273,0.0,0.0,95,0.00,,,0.00,VWS V14.01,2013-09-29 04:55:00,
2013-09-29 01:00:00,55.7,54.3,30.05,West,273,0.0,0.0,95,0.00,,,0.00,VWS V14.01,2013-09-29 05:00:00,
2013-09-29 01:06:00,55.7,54.3,30.05,West,273,0.0,0.0,95,0.00,,,0.00,VWS V14.01,2013-09-29 05:06:00,
2013-09-29 01:11:00,55.7,54.3,30.05,West,273,0.0,0.0,95,0.00,,,0.00,VWS V14.01,2013-09-29 05:11:00,
2013-09-29 01:16:00,55.6,54.2,30.05,West,273,0.0,0.0,95,0.00,,,0.00,VWS V14.01,2013-09-29 05:16:00,
2013-09-29 01:21:00,55.4,54.0,30.05,West,273,0.0,0.0,95,0.00,,,0.00,VWS V14.01,2013-09-29 05:21:00,
2013-09-29 01:26:00,55.4,54.0,30.05,West,273,0.0,0.0,95,0.00,,,0.00,VWS V14.01,2013-09-29 05:26:00,
2013-09-29 01:31:00,55.4,54.0,30.05,West,273,0.0,0.0,95,0.00,,,0.00,VWS V14.01,2013-09-29 05:31:00,
2013-09-29 01:36:00,55.3,53.9,30.05,West,273,0.0,0.0,95,0.00,,,0.00,VWS V14.01,2013-09-29 05:36:00,
2013-09-29 01:41:00,55.3,53.9,30.05,West,273,0.0,0.0,95,0.00,,,0.00,VWS V14.01,2013-09-29 05:41:00,
2013-09-29 01:46:00,55.1,53.7,30.06,West,273,0.0,0.0,95,0.00,,,0.00,VWS V14.01,2013-09-29 05:46:00,
2013-09-29 01:51:00,55.0,53.6,30.06,West,273,0.0,0.0,95,0.00,,,0.00,VWS V14.01,2013-09-29 05:51:00,
2013-09-29 01:56:00,54.8,53.4,30.06,West,273,0.0,0.0,95,0.00,,,0.00,VWS V14.01,2013-09-29 05:56:00,
2013-09-29 02:02:00,54.8,53.4,30.06,West,273,0.0,0.0,95,0.00,,,0.00,VWS V14.01,2013-09-29 06:02:00,
2013-09-29 02:07:00,54.7,53.3,30.06,West,273,0.0,0.0,95,0.00,,,0.00,VWS V14.01,2013-09-29 06:07:00,
2013-09-29 02:12:00,54.7,53.3,30.06,West,273,0.0,0.0,95,0.00,,,0.00,VWS V14.01,2013-09-29 06:12:00,
2013-09-29 02:17:00,54.7,53.3,30.05,West,273,0.0,0.0,95,0.00,,,0.00,VWS V14.01,2013-09-29 06:17:00,
2013-09-29 02:23:00,54.5,53.1,30.05,West,273,0.0,0.0,95,0.00,,,0.00,VWS V14.01,2013-09-29 06:23:00,
2013-09-29 02:28:00,54.4,53.0,30.05,West,273,0.0,0.0,95,0.00,,,0.00,VWS V14.01,2013-09-29 06:28:00,
2013-09-29 02:33:00,54.4,53.0,30.05,West,273,0.0,0.0,95,0.00,,,0.00,VWS V14.01,2013-09-29 06:33:00,
2013-09-29 02:38:00,54.2,52.8,30.05,West,273,0.0,0.0,95,0.00,,,0.00,VWS V14.01,2013-09-29 06:38:00,
2013-09-29 02:43:00,54.2,52.8,30.05,West,273,0.0,0.0,95,0.00,,,0.00,VWS V14.01,2013-09-29 06:43:00,
2013-09-29 02:49:00,54.2,52.8,30.05,West,273,0.0,0.0,95,0.00,,,0.00,VWS V14.01,2013-09-29 06:49:00,
2013-09-29 02:54:00,54.1,52.7,30.05,West,273,0.0,0.0,95,0.00,,,0.00,VWS V14.01,2013-09-29 06:54:00,
2013-09-29 02:59:00,53.9,52.5,30.05,West,273,0.0,0.0,95,0.00,,,0.00,VWS V14.01,2013-09-29 06:59:00,
2013-09-29 03:04:00,53.9,52.5,30.05,West,273,0.0,0.0,95,0.00,,,0.00,VWS V14.01,2013-09-29 07:04:00,
2013-09-29 03:09:00,53.9,52.5,30.05,West,273,0.0,0.0,95,0.00,,,0.00,VWS V14.01,2013-09-29 07:09:00,
2013-09-29 03:14:00,53.8,52.4,30.05,West,273,0.0,0.0,95,0.00,,,0.00,VWS V14.01,2013-09-29 07:14:00,
2013-09-29 03:19:00,53.6,52.2,30.05,West,273,0.0,0.0,95,0.00,,,0.00,VWS V14.01,2013-09-29 07:19:00,
2013-09-29 03:24:00,53.6,52.2,30.05,West,273,0.0,0.0,95,0.00,,,0.00,VWS V14.01,2013-09-29 07:24:00,
2013-09-29 03:29:00,53.6,52.5,30.05,West,273,0.0,0.0,96,0.00,,,0.00,VWS V14.01,2013-09-29 07:29:00,
2013-09-29 03:34:00,53.8,52.7,30.05,West,273,0.0,0.0,96,0.00,,,0.00,VWS V14.01,2013-09-29 07:34:00,
2013-09-29 03:39:00,53.9,52.8,30.05,West,273,0.0,0.0,96,0.00,,,0.00,VWS V14.01,2013-09-29 07:39:00,
2013-09-29 03:44:00,53.9,52.8,30.04,West,273,0.0,0.0,96,0.00,,,0.00,VWS V14.01,2013-09-29 07:44:00,
2013-09-29 03:49:00,53.9,52.8,30.04,West,273,0.0,0.0,96,0.00,,,0.00,VWS V14.01,2013-09-29 07:49:00,
2013-09-29 03:54:00,54.1,53.0,30.04,West,273,0.0,0.0,96,0.00,,,0.00,VWS V14.01,2013-09-29 07:54:00,
2013-09-29 04:00:00,54.2,53.1,30.04,West,273,0.0,0.0,96,0.00,,,0.00,VWS V14.01,2013-09-29 08:00:00,
2013-09-29 04:05:00,54.2,53.1,30.04,West,273,0.0,0.0,96,0.00,,,0.00,VWS V14.01,2013-09-29 08:05:00,
2013-09-29 04:10:00,54.4,53.3,30.04,West,273,0.0,0.0,96,0.00,,,0.00,VWS V14.01,2013-09-29 08:10:00,
2013-09-29 04:15:00,54.4,53.0,30.03,West,273,0.0,0.0,95,0.00,,,0.00,VWS V14.01,2013-09-29 08:15:00,
2013-09-29 04:20:00,54.4,53.0,30.03,West,273,0.0,0.0,95,0.00,,,0.00,VWS V14.01,2013-09-29 08:20:00,
2013-09-29 04:25:00,54.4,53.0,30.03,West,273,0.0,0.0,95,0.00,,,0.00,VWS V14.01,2013-09-29 08:25:00,
2013-09-29 04:30:00,54.4,52.7,30.03,West,273,0.0,0.0,94,0.00,,,0.00,VWS V14.01,2013-09-29 08:30:00,
2013-09-29 04:35:00,54.5,52.8,30.03,West,273,0.0,0.0,94,0.00,,,0.00,VWS V14.01,2013-09-29 08:35:00,
2013-09-29 04:40:00,54.5,52.8,30.03,West,273,0.0,0.0,94,0.00,,,0.00,VWS V14.01,2013-09-29 08:40:00,
2013-09-29 04:45:00,54.7,52.7,30.03,West,273,0.0,0.0,93,0.00,,,0.00,VWS V14.01,2013-09-29 08:45:00,
2013-09-29 04:50:00,54.8,52.5,30.03,West,273,0.0,0.0,92,0.00,,,0.00,VWS V14.01,2013-09-29 08:50:00,
2013-09-29 04:55:00,55.0,52.1,30.03,West,271,0.0,0.0,90,0.00,,,0.00,VWS V14.01,2013-09-29 08:55:00,
2013-09-29 05:00:00,55.1,51.9,30.03,NW,308,0.0,0.0,89,0.00,,,0.00,VWS V14.01,2013-09-29 09:00:00,
2013-09-29 05:06:00,55.3,51.8,30.03,NW,317,0.0,0.0,88,0.00,,,0.00,VWS V14.01,2013-09-29 09:06:00,
2013-09-29 05:11:00,55.4,51.9,30.03,NW,317,0.0,0.0,88,0.00,,,0.00,VWS V14.01,2013-09-29 09:11:00,
2013-09-29 05:16:00,55.4,51.9,30.03,WSW,246,0.0,0.0,88,0.00,,,0.00,VWS V14.01,2013-09-29 09:16:00,
2013-09-29 05:21:00,55.4,51.6,30.03,WSW,241,0.0,0.0,87,0.00,,,0.00,VWS V14.01,2013-09-29 09:21:00,
2013-09-29 05:26:00,55.4,51.6,30.03,WSW,241,0.0,0.0,87,0.00,,,0.00,VWS V14.01,2013-09-29 09:26:00,
2013-09-29 05:31:00,55.4,51.3,30.03,WNW,284,0.0,0.0,86,0.00,,,0.00,VWS V14.01,2013-09-29 09:31:00,
2013-09-29 05:36:00,55.4,51.3,30.03,WNW,284,3.0,0.0,86,0.00,,,0.00,VWS V14.01,2013-09-29 09:36:00,
2013-09-29 05:41:00,55.4,51.3,30.03,WNW,284,0.0,0.0,86,0.00,,,0.00,VWS V14.01,2013-09-29 09:41:00,
2013-09-29 05:46:00,55.3,51.2,30.04,WNW,284,0.0,0.0,86,0.00,,,0.00,VWS V14.01,2013-09-29 09:46:00,
2013-09-29 05:51:00,55.3,51.2,30.04,WNW,284,0.0,0.0,86,0.00,,,0.00,VWS V14.01,2013-09-29 09:51:00,
2013-09-29 05:56:00,55.3,51.5,30.04,WNW,284,0.0,0.0,87,0.00,,,0.00,VWS V14.01,2013-09-29 09:56:00,
2013-09-29 06:01:00,55.3,51.5,30.03,WNW,284,0.0,0.0,87,0.00,,,0.00,VWS V14.01,2013-09-29 10:01:00,
2013-09-29 06:06:00,55.1,51.0,30.03,WNW,284,1.0,0.0,86,0.00,,,0.00,VWS V14.01,2013-09-29 10:06:00,
2013-09-29 06:11:00,55.1,51.3,30.03,WNW,284,0.0,0.0,87,0.00,,,0.00,VWS V14.01,2013-09-29 10:11:00,
2013-09-29 06:16:00,55.1,51.0,30.06,WNW,284,0.0,0.0,86,0.00,,,0.00,VWS V14.01,2013-09-29 10:16:00,
2013-09-29 06:21:00,55.1,51.3,30.06,WNW,284,0.0,0.0,87,0.00,,,0.00,VWS V14.01,2013-09-29 10:21:00,
2013-09-29 06:26:00,55.1,51.0,30.06,WNW,284,0.0,0.0,86,0.00,,,0.00,VWS V14.01,2013-09-29 10:26:00,
2013-09-29 06:31:00,55.1,51.6,30.07,WNW,284,0.0,0.0,88,0.00,,,0.00,VWS V14.01,2013-09-29 10:31:00,
2013-09-29 06:36:00,54.8,51.3,30.07,WNW,284,0.0,0.0,88,0.00,,,0.00,VWS V14.01,2013-09-29 10:36:00,
2013-09-29 06:41:00,54.7,51.2,30.07,WNW,284,0.0,0.0,88,0.00,,,0.00,VWS V14.01,2013-09-29 10:41:00,
2013-09-29 06:46:00,54.5,51.3,30.07,WNW,284,0.0,0.0,89,0.00,,,0.00,VWS V14.01,2013-09-29 10:46:00,
2013-09-29 06:51:00,54.2,51.0,30.07,WNW,284,0.0,0.0,89,0.00,,,0.00,VWS V14.01,2013-09-29 10:51:00,
2013-09-29 06:57:00,54.1,50.9,30.07,WNW,284,0.0,0.0,89,0.00,,,0.00,VWS V14.01,2013-09-29 10:57:00,
2013-09-29 07:02:00,53.8,50.9,30.07,WNW,284,0.0,0.0,90,0.00,,,0.00,VWS V14.01,2013-09-29 11:02:00,
2013-09-29 07:07:00,53.5,50.6,30.07,WNW,284,0.0,0.0,90,0.00,,,0.00,VWS V14.01,2013-09-29 11:07:00,
2013-09-29 07:12:00,53.2,50.7,30.07,WNW,284,0.0,0.0,91,0.00,,,0.00,VWS V14.01,2013-09-29 11:12:00,
2013-09-29 07:17:00,53.1,50.5,30.08,WNW,284,0.0,0.0,91,0.00,,,0.00,VWS V14.01,2013-09-29 11:17:00,
2013-09-29 07:22:00,53.1,50.5,30.08,WNW,284,0.0,0.0,91,0.00,,,0.00,VWS V14.01,2013-09-29 11:22:00,
2013-09-29 07:27:00,52.9,50.6,30.08,WNW,284,0.0,0.0,92,0.00,,,0.00,VWS V14.01,2013-09-29 11:27:00,
2013-09-29 07:32:00,52.9,50.6,30.09,WNW,284,0.0,0.0,92,0.00,,,0.00,VWS V14.01,2013-09-29 11:32:00,
2013-09-29 07:37:00,53.1,50.8,30.09,WNW,284,0.0,0.0,92,0.00,,,0.00,VWS V14.01,2013-09-29 11:37:00,
2013-09-29 07:42:00,53.1,50.8,30.09,WNW,284,0.0,0.0,92,0.00,,,0.00,VWS V14.01,2013-09-29 11:42:00,
2013-09-29 07:47:00,53.1,50.8,30.08,WNW,284,0.0,0.0,92,0.00,,,0.00,VWS V14.01,2013-09-29 11:47:00,
2013-09-29 07:52:00,53.2,51.2,30.08,WNW,284,0.0,0.0,93,0.00,,,0.00,VWS V14.01,2013-09-29 11:52:00,
2013-09-29 07:57:00,53.3,51.3,30.08,WNW,284,0.0,0.0,93,0.00,,,0.00,VWS V14.01,2013-09-29 11:57:00,
2013-09-29 08:02:00,53.5,51.5,30.08,WNW,284,0.0,0.0,93,0.00,,,0.00,VWS V14.01,2013-09-29 12:02:00,
2013-09-29 08:07:00,53.6,51.6,30.08,WNW,284,0.0,0.0,93,0.00,,,0.00,VWS V14.01,2013-09-29 12:07:00,
2013-09-29 08:12:00,53.8,51.8,30.08,WNW,284,0.0,0.0,93,0.00,,,0.00,VWS V14.01,2013-09-29 12:12:00,
2013-09-29 08:17:00,53.9,51.9,30.08,WNW,284,0.0,0.0,93,0.00,,,0.00,VWS V14.01,2013-09-29 12:17:00,
2013-09-29 08:22:00,54.1,52.1,30.08,WNW,284,0.0,0.0,93,0.00,,,0.00,VWS V14.01,2013-09-29 12:22:00,
2013-09-29 08:27:00,54.4,52.1,30.08,WNW,284,0.0,0.0,92,0.00,,,0.00,VWS V14.01,2013-09-29 12:27:00,
2013-09-29 08:33:00,54.5,51.9,30.09,WNW,284,0.0,0.0,91,0.00,,,0.00,VWS V14.01,2013-09-29 12:33:00,
2013-09-29 08:38:00,54.8,52.2,30.09,WNW,284,0.0,0.0,91,0.00,,,0.00,VWS V14.01,2013-09-29 12:38:00,
2013-09-29 08:43:00,55.1,51.9,30.09,WNW,284,0.0,0.0,89,0.00,,,0.00,VWS V14.01,2013-09-29 12:43:00,
2013-09-29 08:48:00,55.3,52.1,30.08,WNW,284,0.0,0.0,89,0.00,,,0.00,VWS V14.01,2013-09-29 12:48:00,
2013-09-29 08:53:00,55.6,52.1,30.08,WNW,284,0.0,0.0,88,0.00,,,0.00,VWS V14.01,2013-09-29 12:53:00,
2013-09-29 08:58:00,55.7,51.6,30.08,WNW,284,0.0,0.0,86,0.00,,,0.00,VWS V14.01,2013-09-29 12:58:00,
2013-09-29 09:03:00,55.9,51.5,30.08,WNW,284,0.0,0.0,85,0.00,,,0.00,VWS V14.01,2013-09-29 13:03:00,
2013-09-29 09:08:00,56.0,51.2,30.08,WNW,284,0.0,0.0,84,0.00,,,0.00,VWS V14.01,2013-09-29 13:08:00,
2013-09-29 09:13:00,56.2,51.4,30.08,WNW,284,0.0,0.0,84,0.00,,,0.00,VWS V14.01,2013-09-29 13:13:00,
2013-09-29 09:18:00,56.5,51.7,30.08,WNW,284,0.0,0.0,84,0.00,,,0.00,VWS V14.01,2013-09-29 13:18:00,
2013-09-29 09:23:00,56.7,51.6,30.08,WNW,284,0.0,0.0,83,0.00,,,0.00,VWS V14.01,2013-09-29 13:23:00,
2013-09-29 09:28:00,56.9,51.8,30.08,WNW,284,0.0,0.0,83,0.00,,,0.00,VWS V14.01,2013-09-29 13:28:00,
2013-09-29 09:33:00,57.2,51.4,30.08,NNE,22,0.0,0.0,81,0.00,,,0.00,VWS V14.01,2013-09-29 13:33:00,
2013-09-29 09:38:00,57.3,51.5,30.08,NW,311,0.0,0.0,81,0.00,,,0.00,VWS V14.01,2013-09-29 13:38:00,
2013-09-29 09:43:00,57.5,51.7,30.08,NW,311,0.0,0.0,81,0.00,,,0.00,VWS V14.01,2013-09-29 13:43:00,
2013-09-29 09:48:00,57.8,51.3,30.08,West,263,0.0,0.0,79,0.00,,,0.00,VWS V14.01,2013-09-29 13:48:00,
2013-09-29 09:53:00,58.1,52.0,30.08,West,263,0.0,0.0,80,0.00,,,0.00,VWS V14.01,2013-09-29 13:53:00,
2013-09-29 09:58:00,58.3,51.8,30.08,North,360,1.0,0.0,79,0.00,,,0.00,VWS V14.01,2013-09-29 13:58:00,
2013-09-29 10:04:00,58.4,51.9,30.08,North,360,0.0,0.0,79,0.00,,,0.00,VWS V14.01,2013-09-29 14:04:00,
2013-09-29 10:09:00,58.7,52.6,30.08,West,273,0.0,0.0,80,0.00,,,0.00,VWS V14.01,2013-09-29 14:09:00,
2013-09-29 10:14:00,58.9,52.4,30.07,West,271,0.0,0.0,79,0.00,,,0.00,VWS V14.01,2013-09-29 14:14:00,
2013-09-29 10:19:00,59.0,52.5,30.07,West,272,0.0,0.0,79,0.00,,,0.00,VWS V14.01,2013-09-29 14:19:00,
2013-09-29 10:24:00,59.2,52.7,30.07,NNW,348,0.0,0.0,79,0.00,,,0.00,VWS V14.01,2013-09-29 14:24:00,
2013-09-29 10:29:00,59.3,52.8,30.07,NNW,348,0.0,0.0,79,0.00,,,0.00,VWS V14.01,2013-09-29 14:29:00,
2013-09-29 10:34:00,59.5,52.6,30.07,West,274,1.0,0.0,78,0.00,,,0.00,VWS V14.01,2013-09-29 14:34:00,
2013-09-29 10:39:00,59.6,52.7,30.07,West,274,0.0,0.0,78,0.00,,,0.00,VWS V14.01,2013-09-29 14:39:00,
2013-09-29 10:44:00,59.8,53.3,30.07,West,274,0.0,0.0,79,0.00,,,0.00,VWS V14.01,2013-09-29 14:44:00,
2013-09-29 10:49:00,59.9,52.7,30.07,West,274,0.0,0.0,77,0.00,,,0.00,VWS V14.01,2013-09-29 14:49:00,
2013-09-29 10:54:00,60.1,52.9,30.07,West,274,0.0,0.0,77,0.00,,,0.00,VWS V14.01,2013-09-29 14:54:00,
2013-09-29 10:59:00,60.4,53.2,30.07,West,274,0.0,0.0,77,0.00,,,0.00,VWS V14.01,2013-09-29 14:59:00,
2013-09-29 11:04:00,60.7,53.1,30.07,NE,44,2.0,0.0,76,0.00,,,0.00,VWS V14.01,2013-09-29 15:04:00,
2013-09-29 11:09:00,60.9,53.7,30.07,NE,44,0.0,0.0,77,0.00,,,0.00,VWS V14.01,2013-09-29 15:09:00,
2013-09-29 11:14:00,61.3,53.7,30.07,NE,44,1.0,0.0,76,0.00,,,0.00,VWS V14.01,2013-09-29 15:14:00,
2013-09-29 11:19:00,62.0,53.6,30.07,North,5,3.0,0.0,74,0.00,,,0.00,VWS V14.01,2013-09-29 15:19:00,
2013-09-29 11:25:00,62.1,53.7,30.07,North,5,0.0,0.0,74,0.00,,,0.00,VWS V14.01,2013-09-29 15:25:00,
2013-09-29 11:30:00,62.6,54.2,30.07,North,360,0.0,0.0,74,0.00,,,0.00,VWS V14.01,2013-09-29 15:30:00,
2013-09-29 11:35:00,62.9,54.1,30.07,North,360,0.0,0.0,73,0.00,,,0.00,VWS V14.01,2013-09-29 15:35:00,
2013-09-29 11:40:00,63.5,54.7,30.07,North,360,0.0,0.0,73,0.00,,,0.00,VWS V14.01,2013-09-29 15:40:00,
2013-09-29 11:45:00,63.9,54.7,30.06,North,360,1.0,0.0,72,0.00,,,0.00,VWS V14.01,2013-09-29 15:45:00,
2013-09-29 11:50:00,63.5,54.3,30.06,North,5,0.0,0.0,72,0.00,,,0.00,VWS V14.01,2013-09-29 15:50:00,
2013-09-29 11:55:00,63.2,54.8,30.06,North,5,0.0,0.0,74,0.00,,,0.00,VWS V14.01,2013-09-29 15:55:00,
2013-09-29 12:01:00,63.1,54.7,30.05,North,5,0.0,0.0,74,0.00,,,0.00,VWS V14.01,2013-09-29 16:01:00,
2013-09-29 12:06:00,62.9,54.5,30.05,North,5,0.0,0.0,74,0.00,,,0.00,VWS V14.01,2013-09-29 16:06:00,
2013-09-29 12:11:00,63.2,54.8,30.05,WSW,242,0.0,0.0,74,0.00,,,0.00,VWS V14.01,2013-09-29 16:11:00,
2013-09-29 12:16:00,63.4,55.0,30.05,NNE,12,0.0,0.0,74,0.00,,,0.00,VWS V14.01,2013-09-29 16:16:00,
2013-09-29 12:21:00,63.7,55.3,30.05,NNE,12,0.0,0.0,74,0.00,,,0.00,VWS V14.01,2013-09-29 16:21:00,
2013-09-29 12:26:00,64.0,55.6,30.05,NNE,12,0.0,0.0,74,0.00,,,0.00,VWS V14.01,2013-09-29 16:26:00,
2013-09-29 12:31:00,64.2,55.4,30.05,NNE,12,0.0,0.0,73,0.00,,,0.00,VWS V14.01,2013-09-29 16:31:00,
2013-09-29 12:36:00,64.5,55.7,30.05,WSW,249,0.0,0.0,73,0.00,,,0.00,VWS V14.01,2013-09-29 16:36:00,
2013-09-29 12:41:00,65.2,55.6,30.05,East,81,0.0,0.0,71,0.00,,,0.00,VWS V14.01,2013-09-29 16:41:00,
2013-09-29 12:46:00,66.1,55.7,30.04,WSW,243,0.0,0.0,69,0.00,,,0.00,VWS V14.01,2013-09-29 16:46:00,
2013-09-29 12:51:00,66.8,56.3,30.04,WSW,243,1.0,0.0,69,0.00,,,0.00,VWS V14.01,2013-09-29 16:51:00,
2013-09-29 12:56:00,67.1,56.6,30.04,WSW,243,0.0,0.0,69,0.00,,,0.00,VWS V14.01,2013-09-29 16:56:00,
2013-09-29 13:02:00,67.4,56.9,30.04,WSW,243,0.0,0.0,69,0.00,,,0.00,VWS V14.01,2013-09-29 17:02:00,
2013-09-29 13:07:00,68.1,57.2,30.04,WSW,243,0.0,0.0,68,0.00,,,0.00,VWS V14.01,2013-09-29 17:07:00,
2013-09-29 13:12:00,68.6,56.8,30.04,WSW,243,0.0,0.0,66,0.00,,,0.00,VWS V14.01,2013-09-29 17:12:00,
2013-09-29 13:17:00,68.9,57.1,30.03,WSW,243,0.0,0.0,66,0.00,,,0.00,VWS V14.01,2013-09-29 17:17:00,
2013-09-29 13:22:00,69.3,56.6,30.03,West,262,0.0,0.0,64,0.00,,,0.00,VWS V14.01,2013-09-29 17:22:00,
2013-09-29 13:27:00,69.1,57.3,30.03,WSW,254,1.0,0.0,66,0.00,,,0.00,VWS V14.01,2013-09-29 17:27:00,
2013-09-29 13:32:00,69.3,57.0,30.02,WSW,250,0.0,0.0,65,0.00,,,0.00,VWS V14.01,2013-09-29 17:32:00,
2013-09-29 13:37:00,69.6,56.9,30.02,WSW,250,0.0,0.0,64,0.00,,,0.00,VWS V14.01,2013-09-29 17:37:00,
2013-09-29 13:42:00,69.4,56.7,30.02,WSW,250,0.0,0.0,64,0.00,,,0.00,VWS V14.01,2013-09-29 17:42:00,
2013-09-29 13:47:00,69.1,56.8,30.02,WSW,248,2.0,0.0,65,0.00,,,0.00,VWS V14.01,2013-09-29 17:47:00,
2013-09-29 13:52:00,68.9,56.7,30.02,WSW,248,0.0,0.0,65,0.00,,,0.00,VWS V14.01,2013-09-29 17:52:00,
2013-09-29 13:57:00,69.1,56.8,30.02,WSW,250,0.0,0.0,65,0.00,,,0.00,VWS V14.01,2013-09-29 17:57:00,
2013-09-29 14:02:00,68.8,57.0,30.00,WSW,250,0.0,0.0,66,0.00,,,0.00,VWS V14.01,2013-09-29 18:02:00,
2013-09-29 14:08:00,68.9,57.1,30.00,WSW,250,0.0,0.0,66,0.00,,,0.00,VWS V14.01,2013-09-29 18:08:00,
2013-09-29 14:13:00,69.4,55.8,30.00,WSW,238,2.0,0.0,62,0.00,,,0.00,VWS V14.01,2013-09-29 18:13:00,
2013-09-29 14:18:00,69.6,56.9,30.00,WSW,238,0.0,0.0,64,0.00,,,0.00,VWS V14.01,2013-09-29 18:18:00,
2013-09-29 14:23:00,69.9,56.8,30.00,WSW,250,1.0,0.0,63,0.00,,,0.00,VWS V14.01,2013-09-29 18:23:00,
2013-09-29 14:28:00,69.9,56.8,30.00,West,261,1.0,0.0,63,0.00,,,0.00,VWS V14.01,2013-09-29 18:28:00,
2013-09-29 14:33:00,70.8,56.7,29.99,WNW,300,1.0,0.0,61,0.00,,,0.00,VWS V14.01,2013-09-29 18:33:00,
2013-09-29 14:38:00,71.3,56.7,29.99,WNW,300,1.0,0.0,60,0.00,,,0.00,VWS V14.01,2013-09-29 18:38:00,
2013-09-29 14:43:00,70.8,56.2,29.99,WNW,300,0.0,0.0,60,0.00,,,0.00,VWS V14.01,2013-09-29 18:43:00,
2013-09-29 14:48:00,70.1,56.5,29.99,WNW,300,0.0,0.0,62,0.00,,,0.00,VWS V14.01,2013-09-29 18:48:00,
2013-09-29 14:53:00,69.6,56.5,29.99,WNW,300,0.0,0.0,63,0.00,,,0.00,VWS V14.01,2013-09-29 18:53:00,
2013-09-29 14:58:00,68.9,56.2,29.99,WNW,300,0.0,0.0,64,0.00,,,0.00,VWS V14.01,2013-09-29 18:58:00,
2013-09-29 15:03:00,69.1,56.4,29.98,WNW,300,0.0,0.0,64,0.00,,,0.00,VWS V14.01,2013-09-29 19:03:00,
2013-09-29 15:08:00,69.3,55.7,29.98,WNW,300,0.0,0.0,62,0.00,,,0.00,VWS V14.01,2013-09-29 19:08:00,
2013-09-29 15:13:00,69.9,56.3,29.98,WNW,300,0.0,0.0,62,0.00,,,0.00,VWS V14.01,2013-09-29 19:13:00,
2013-09-29 15:18:00,70.6,56.5,29.97,WNW,300,0.0,0.0,61,0.00,,,0.00,VWS V14.01,2013-09-29 19:18:00,
2013-09-29 15:24:00,70.4,57.2,29.97,WNW,300,0.0,0.0,63,0.00,,,0.00,VWS V14.01,2013-09-29 19:24:00,
2013-09-29 15:29:00,70.8,56.7,29.97,WNW,300,0.0,0.0,61,0.00,,,0.00,VWS V14.01,2013-09-29 19:29:00,
2013-09-29 15:34:00,70.8,56.7,29.97,WNW,298,0.0,0.0,61,0.00,,,0.00,VWS V14.01,2013-09-29 19:34:00,
2013-09-29 15:39:00,70.6,57.4,29.97,WNW,298,1.0,0.0,63,0.00,,,0.00,VWS V14.01,2013-09-29 19:39:00,
2013-09-29 15:44:00,70.4,57.2,29.96,WSW,250,2.0,0.0,63,0.00,,,0.00,VWS V14.01,2013-09-29 19:44:00,
2013-09-29 15:49:00,70.6,56.1,29.96,WSW,250,0.0,0.0,60,0.00,,,0.00,VWS V14.01,2013-09-29 19:49:00,
2013-09-29 15:50:00,70.6,56.1,29.96,WSW,250,1.0,0.0,60,0.00,,,0.00,VWS V14.01,2013-09-29 19:50:00,
2013-09-29 15:55:00,70.8,55.8,29.96,WSW,250,0.0,0.0,59,0.00,,,0.00,VWS V14.01,2013-09-29 19:55:00,
2013-09-29 16:00:00,71.1,56.1,29.96,WSW,250,0.0,0.0,59,0.00,,,0.00,VWS V14.01,2013-09-29 20:00:00,
2013-09-29 16:05:00,71.8,55.8,29.96,WSW,250,0.0,0.0,57,0.00,,,0.00,VWS V14.01,2013-09-29 20:05:00,
2013-09-29 16:10:00,72.1,54.6,29.96,WSW,250,0.0,0.0,54,0.00,,,0.00,VWS V14.01,2013-09-29 20:10:00,
2013-09-29 16:15:00,72.3,55.7,29.95,West,260,0.0,0.0,56,0.00,,,0.00,VWS V14.01,2013-09-29 20:15:00,
2013-09-29 16:20:00,71.8,56.2,29.95,West,260,0.0,0.0,58,0.00,,,0.00,VWS V14.01,2013-09-29 20:20:00,
2013-09-29 16:25:00,71.6,56.5,29.95,West,260,0.0,0.0,59,0.00,,,0.00,VWS V14.01,2013-09-29 20:25:00,
2013-09-29 16:30:00,71.5,56.4,29.95,West,260,0.0,0.0,59,0.00,,,0.00,VWS V14.01,2013-09-29 20:30:00,
2013-09-29 16:35:00,71.3,56.7,29.95,West,260,0.0,0.0,60,0.00,,,0.00,VWS V14.01,2013-09-29 20:35:00,
2013-09-29 16:40:00,70.4,58.5,29.95,West,260,0.0,0.0,66,0.00,,,0.00,VWS V14.01,2013-09-29 20:40:00,
2013-09-29 16:45:00,69.9,58.9,29.96,West,260,0.0,0.0,68,0.00,,,0.00,VWS V14.01,2013-09-29 20:45:00,
2013-09-29 16:50:00,70.1,58.7,29.96,West,260,0.0,0.0,67,0.00,,,0.00,VWS V14.01,2013-09-29 20:50:00,
2013-09-29 16:56:00,70.4,56.8,29.96,West,260,0.0,0.0,62,0.00,,,0.00,VWS V14.01,2013-09-29 20:56:00,
2013-09-29 17:01:00,70.6,58.3,29.95,West,260,0.0,0.0,65,0.00,,,0.00,VWS V14.01,2013-09-29 21:01:00,
2013-09-29 17:06:00,70.6,57.4,29.95,West,260,0.0,0.0,63,0.00,,,0.00,VWS V14.01,2013-09-29 21:06:00,
2013-09-29 17:11:00,70.8,58.0,29.95,West,260,0.0,0.0,64,0.00,,,0.00,VWS V14.01,2013-09-29 21:11:00,
2013-09-29 17:16:00,70.8,58.0,29.95,West,260,0.0,0.0,64,0.00,,,0.00,VWS V14.01,2013-09-29 21:16:00,
2013-09-29 17:21:00,70.4,57.7,29.95,West,260,0.0,0.0,64,0.00,,,0.00,VWS V14.01,2013-09-29 21:21:00,
2013-09-29 17:26:00,69.8,57.5,29.95,West,260,0.0,0.0,65,0.00,,,0.00,VWS V14.01,2013-09-29 21:26:00,
2013-09-29 17:31:00,69.3,57.5,29.96,West,260,0.0,0.0,66,0.00,,,0.00,VWS V14.01,2013-09-29 21:31:00,
2013-09-29 17:36:00,69.1,57.7,29.96,West,260,0.0,0.0,67,0.00,,,0.00,VWS V14.01,2013-09-29 21:36:00,
2013-09-29 17:41:00,69.1,58.5,29.96,West,260,0.0,0.0,69,0.00,,,0.00,VWS V14.01,2013-09-29 21:41:00,
2013-09-29 17:46:00,68.6,59.2,29.96,West,260,0.0,0.0,72,0.00,,,0.00,VWS V14.01,2013-09-29 21:46:00,
2013-09-29 17:51:00,67.8,59.2,29.96,West,260,0.0,0.0,74,0.00,,,0.00,VWS V14.01,2013-09-29 21:51:00,
2013-09-29 17:56:00,67.1,59.7,29.96,West,260,0.0,0.0,77,0.00,,,0.00,VWS V14.01,2013-09-29 21:56:00,
2013-09-29 18:02:00,66.8,59.4,29.96,West,260,0.0,0.0,77,0.00,,,0.00,VWS V14.01,2013-09-29 22:02:00,
2013-09-29 18:07:00,66.6,59.2,29.96,SW,224,0.0,0.0,77,0.00,,,0.00,VWS V14.01,2013-09-29 22:07:00,
2013-09-29 18:12:00,66.6,59.2,29.96,SW,224,0.0,0.0,77,0.00,,,0.00,VWS V14.01,2013-09-29 22:12:00,
2013-09-29 18:17:00,66.4,59.0,29.97,SW,224,0.0,0.0,77,0.00,,,0.00,VWS V14.01,2013-09-29 22:17:00,
2013-09-29 18:22:00,66.4,59.0,29.97,SW,224,0.0,0.0,77,0.00,,,0.00,VWS V14.01,2013-09-29 22:22:00,
2013-09-29 18:27:00,66.3,58.9,29.97,SW,224,0.0,0.0,77,0.00,,,0.00,VWS V14.01,2013-09-29 22:27:00,
2013-09-29 18:32:00,66.1,58.7,29.97,SW,224,0.0,0.0,77,0.00,,,0.00,VWS V14.01,2013-09-29 22:32:00,
2013-09-29 18:38:00,66.0,59.0,29.97,SW,224,0.0,0.0,78,0.00,,,0.00,VWS V14.01,2013-09-29 22:38:00,
2013-09-29 18:43:00,65.5,59.5,29.97,SW,224,0.0,0.0,81,0.00,,,0.00,VWS V14.01,2013-09-29 22:43:00,
2013-09-29 18:48:00,65.3,59.3,29.96,SW,224,0.0,0.0,81,0.00,,,0.00,VWS V14.01,2013-09-29 22:48:00,
2013-09-29 18:53:00,65.0,59.0,29.96,SW,224,0.0,0.0,81,0.00,,,0.00,VWS V14.01,2013-09-29 22:53:00,
2013-09-29 18:58:00,64.7,59.4,29.96,SW,224,0.0,0.0,83,0.00,,,0.00,VWS V14.01,2013-09-29 22:58:00,
2013-09-29 19:03:00,64.2,59.3,29.97,SW,224,0.0,0.0,84,0.00,,,0.00,VWS V14.01,2013-09-29 23:03:00,
2013-09-29 19:08:00,63.7,58.8,29.97,SW,224,0.0,0.0,84,0.00,,,0.00,VWS V14.01,2013-09-29 23:08:00,
2013-09-29 19:13:00,63.4,58.5,29.97,SW,224,0.0,0.0,84,0.00,,,0.00,VWS V14.01,2013-09-29 23:13:00,
2013-09-29 19:18:00,62.9,58.3,29.97,SW,224,0.0,0.0,85,0.00,,,0.00,VWS V14.01,2013-09-29 23:18:00,
2013-09-29 19:24:00,62.6,58.0,29.97,SW,224,0.0,0.0,85,0.00,,,0.00,VWS V14.01,2013-09-29 23:24:00,
2013-09-29 19:29:00,62.4,58.2,29.97,SW,224,0.0,0.0,86,0.00,,,0.00,VWS V14.01,2013-09-29 23:29:00,
2013-09-29 19:34:00,62.3,58.4,29.97,SW,224,0.0,0.0,87,0.00,,,0.00,VWS V14.01,2013-09-29 23:34:00,
2013-09-29 19:39:00,62.0,58.1,29.97,SW,224,0.0,0.0,87,0.00,,,0.00,VWS V14.01,2013-09-29 23:39:00,
2013-09-29 19:45:00,61.8,58.2,29.96,SW,224,0.0,0.0,88,0.00,,,0.00,VWS V14.01,2013-09-29 23:45:00,
2013-09-29 19:50:00,61.6,58.3,29.96,SW,224,0.0,0.0,89,0.00,,,0.00,VWS V14.01,2013-09-29 23:50:00,
2013-09-29 19:55:00,61.3,58.0,29.96,SW,224,0.0,0.0,89,0.00,,,0.00,VWS V14.01,2013-09-29 23:55:00,
2013-09-29 20:00:00,61.2,57.9,29.97,SW,224,0.0,0.0,89,0.00,,,0.00,VWS V14.01,2013-09-30 00:00:00,
2013-09-29 20:05:00,61.0,58.0,29.97,SW,224,0.0,0.0,90,0.00,,,0.00,VWS V14.01,2013-09-30 00:05:00,
2013-09-29 20:10:00,60.9,58.0,29.97,SW,224,0.0,0.0,90,0.00,,,0.00,VWS V14.01,2013-09-30 00:10:00,
2013-09-29 20:15:00,60.9,58.0,29.96,SW,224,0.0,0.0,90,0.00,,,0.00,VWS V14.01,2013-09-30 00:15:00,
2013-09-29 20:20:00,60.7,58.1,29.96,SW,224,0.0,0.0,91,0.00,,,0.00,VWS V14.01,2013-09-30 00:20:00,
2013-09-29 20:25:00,60.5,57.9,29.96,SW,224,0.0,0.0,91,0.00,,,0.00,VWS V14.01,2013-09-30 00:25:00,
2013-09-29 20:30:00,60.5,57.9,29.95,SW,224,0.0,0.0,91,0.00,,,0.00,VWS V14.01,2013-09-30 00:30:00,
2013-09-29 20:35:00,60.4,57.8,29.95,SW,224,0.0,0.0,91,0.00,,,0.00,VWS V14.01,2013-09-30 00:35:00,
2013-09-29 20:40:00,60.2,57.6,29.95,SW,224,0.0,0.0,91,0.00,,,0.00,VWS V14.01,2013-09-30 00:40:00,
2013-09-29 20:45:00,60.1,57.5,29.95,SW,224,0.0,0.0,91,0.00,,,0.00,VWS V14.01,2013-09-30 00:45:00,
2013-09-29 20:50:00,59.9,57.6,29.95,SW,224,0.0,0.0,92,0.00,,,0.00,VWS V14.01,2013-09-30 00:50:00,
2013-09-29 20:55:00,59.9,57.6,29.95,SW,224,0.0,0.0,92,0.00,,,0.00,VWS V14.01,2013-09-30 00:55:00,
2013-09-29 21:00:00,59.8,57.5,29.95,SW,224,0.0,0.0,92,0.00,,,0.00,VWS V14.01,2013-09-30 01:00:00,
2013-09-29 21:06:00,59.6,57.3,29.95,SW,224,0.0,0.0,92,0.00,,,0.00,VWS V14.01,2013-09-30 01:06:00,
2013-09-29 21:11:00,59.6,57.3,29.95,SW,224,0.0,0.0,92,0.00,,,0.00,VWS V14.01,2013-09-30 01:11:00,
2013-09-29 21:16:00,59.6,57.6,29.95,SW,224,0.0,0.0,93,0.00,,,0.00,VWS V14.01,2013-09-30 01:16:00,
2013-09-29 21:21:00,59.5,57.5,29.95,SW,224,0.0,0.0,93,0.00,,,0.00,VWS V14.01,2013-09-30 01:21:00,
2013-09-29 21:26:00,59.5,57.5,29.95,SW,224,0.0,0.0,93,0.00,,,0.00,VWS V14.01,2013-09-30 01:26:00,
2013-09-29 21:31:00,59.3,57.3,29.95,SW,224,0.0,0.0,93,0.00,,,0.00,VWS V14.01,2013-09-30 01:31:00,
2013-09-29 21:36:00,59.3,57.3,29.95,SW,224,0.0,0.0,93,0.00,,,0.00,VWS V14.01,2013-09-30 01:36:00,
2013-09-29 21:41:00,59.3,57.3,29.95,SW,224,0.0,0.0,93,0.00,,,0.00,VWS V14.01,2013-09-30 01:41:00,
2013-09-29 21:46:00,59.3,57.3,29.95,SW,224,0.0,0.0,93,0.00,,,0.00,VWS V14.01,2013-09-30 01:46:00,
2013-09-29 21:51:00,59.3,57.3,29.95,SW,224,0.0,0.0,93,0.00,,,0.00,VWS V14.01,2013-09-30 01:51:00,
2013-09-29 21:56:00,59.3,57.6,29.95,SW,224,0.0,0.0,94,0.00,,,0.00,VWS V14.01,2013-09-30 01:56:00,
2013-09-29 22:02:00,59.3,57.6,29.96,SW,224,0.0,0.0,94,0.00,,,0.00,VWS V14.01,2013-09-30 02:02:00,
2013-09-29 22:07:00,59.3,57.6,29.96,SW,224,0.0,0.0,94,0.00,,,0.00,VWS V14.01,2013-09-30 02:07:00,
2013-09-29 22:12:00,59.3,57.6,29.96,SW,224,0.0,0.0,94,0.00,,,0.00,VWS V14.01,2013-09-30 02:12:00,
2013-09-29 22:17:00,59.3,57.6,29.96,SW,224,0.0,0.0,94,0.00,,,0.00,VWS V14.01,2013-09-30 02:17:00,
2013-09-29 22:22:00,59.3,57.6,29.96,SW,224,0.0,0.0,94,0.00,,,0.00,VWS V14.01,2013-09-30 02:22:00,
2013-09-29 22:27:00,59.3,57.6,29.96,SW,224,0.0,0.0,94,0.00,,,0.00,VWS V14.01,2013-09-30 02:27:00,
2013-09-29 22:32:00,59.3,57.6,29.97,SW,224,0.0,0.0,94,0.00,,,0.00,VWS V14.01,2013-09-30 02:32:00,
2013-09-29 22:37:00,59.5,57.8,29.97,SW,224,0.0,0.0,94,0.00,,,0.00,VWS V14.01,2013-09-30 02:37:00,
2013-09-29 22:42:00,59.3,57.6,29.97,SW,224,0.0,0.0,94,0.00,,,0.00,VWS V14.01,2013-09-30 02:42:00,
2013-09-29 22:47:00,59.3,57.6,29.97,SW,224,0.0,0.0,94,0.00,,,0.00,VWS V14.01,2013-09-30 02:47:00,
2013-09-29 22:53:00,59.3,57.6,29.97,SW,224,0.0,0.0,94,0.00,,,0.00,VWS V14.01,2013-09-30 02:53:00,
2013-09-29 22:58:00,59.3,57.6,29.97,SW,224,0.0,0.0,94,0.00,,,0.00,VWS V14.01,2013-09-30 02:58:00,
2013-09-29 23:03:00,59.5,57.8,29.98,SW,225,0.0,0.0,94,0.00,,,0.00,VWS V14.01,2013-09-30 03:03:00,
2013-09-29 23:08:00,59.5,57.8,29.98,SW,224,0.0,0.0,94,0.00,,,0.00,VWS V14.01,2013-09-30 03:08:00,
2013-09-29 23:13:00,59.5,57.8,29.98,SW,224,0.0,0.0,94,0.00,,,0.00,VWS V14.01,2013-09-30 03:13:00,
2013-09-29 23:18:00,59.5,57.8,29.97,SW,224,0.0,0.0,94,0.00,,,0.00,VWS V14.01,2013-09-30 03:18:00,
2013-09-29 23:23:00,59.5,57.8,29.97,SW,224,0.0,0.0,94,0.00,,,0.00,VWS V14.01,2013-09-30 03:23:00,
2013-09-29 23:28:00,59.6,57.9,29.97,SW,224,0.0,0.0,94,0.00,,,0.00,VWS V14.01,2013-09-30 03:28:00,
2013-09-29 23:33:00,59.6,57.9,29.98,SW,224,0.0,0.0,94,0.00,,,0.00,VWS V14.01,2013-09-30 03:33:00,
2013-09-29 23:38:00,59.8,58.1,29.98,SW,224,0.0,0.0,94,0.00,,,0.00,VWS V14.01,2013-09-30 03:38:00,
2013-09-29 23:44:00,59.8,58.1,29.98,SW,224,0.0,0.0,94,0.00,,,0.00,VWS V14.01,2013-09-30 03:44:00,
2013-09-29 23:49:00,59.8,58.1,29.98,SW,224,0.0,0.0,94,0.00,,,0.00,VWS V14.01,2013-09-30 03:49:00,
2013-09-29 23:54:00,59.8,58.1,29.98,SW,224,0.0,0.0,94,0.00,,,0.00,VWS V14.01,2013-09-30 03:54:00,
2013-09-29 23:59:00,59.9,58.2,29.98,SW,224,0.0,0.0,94,0.00,,,0.00,VWS V14.01,2013-09-30 03:59:00,